SCP
-0 -0 0 -0 -0 -0 -0 -0 -0 -0 -0 -0 -0 -0 -0 -0 -0 -0 -0 -0 -0 -0 -0 -0 -0 0 -0 -0 -0 -0 -0 -0 -0 -0 -0 -0 -0 -0 -0 -0 -0 -0 -0
-0 -0 -0 0 -0 0 -0 -0 0 -0 -0 -0 -0 -0 -0 -0 -0 -0 -0 -0 -0 -0 -0 -0 -0 0 -0 -0 -0 -0 -0 -0 -0 0 -0 -0 -0 -0 -0 -0 -0 -0 0
-0 -0 0 0 0 0 0 0 0 -0 0 -0 -0 -0 -0 -0 -0 -0 -0 -0 -0 -0 -0 -0 0 -0 -0 -0 -0 -0 -0 -0 -0 0 -0 -0 -0 -0 -0 -0 -0 0 0
-0 0 0 0 0 -0 -0 0 -0 0 -0 -0 -0 -0 -0 -0 -0 -0 -0 -0 -0 -0 -0 -0 -0 -0 -0 -0 -0 -0 -0 -0 0 -0 -0 -0 -0 -0 -0 -0 0 0 0
-0 0 -0 0 0 0 0 -0 -0 -0 -0 -0 -0 -0 -0 -0 -0 -0 -0 -0 -0 -0 -0 -0 -0 -0 -0 -0 -0 -0 -0 -0 -0 -0 -0 -0 0 -0 0 0 0 0 0
0 0 -0 0 0 0 0 0 0 -0 -0 -0 -0 -0 -0 -0 0 0 0 -0 -0 -0 -0 -0 -0 -0 -0 -0 -0 -0 -0 0 -0 -0 0 0 0 0 0 0 0 0 0
0 0 -0 0 0 0 -0 -0 -0 -0 -0 -0 -0 -0 -0 -0 0 0 0 -0 -0 -0 -0 -0 -0 -0 -0 -0 -0 -0 -0 -0 -0 0 0 0 0 0 0 0 0 0 0
0 0 0 0 0 0 -0 -0 -0 0 -0 -0 -0 -0 -0 -0 0 0 -0 -0 -0 -0 -0 -0 -0 -0 -0 -0 -0 -0 0 -0 0 0 0 0 0 0 0 0 0 0 0
0 0 0 0 0 0 0 -0 -0 -0 -0 0 -0 -0 -0 0 -0 -0 0 -0 -0 -0 -0 -0 -0 -0 -0 -0 -0 -0 0 -0 0 0 0 0 0 0 0 0 0 0 0
-0 -0 0 0 0 0 0 0 -0 -0 0 0 0 0 0 -0 0 0 -0 -0 -0 -0 -0 -0 -0 -0 -0 -0 0 0 0 0 0 0 0 0 0 0 0 0 0 0 0
-0 -0 0 0 0 0 0 0 -0 -0 0 0 0 0 0 0 0 -0 -0 -0 -0 -0 -0 -0 -0 -0 -0 0 0 0 0 0 0 0 0 0 0 0 0 0 0 0 0
0 0 0 -0 0 0 0 0 0 0 0 0 0 0 0 0 0 0 -0 -0 -0 -0 -0 -0 -0 0 0 0 0 0 0 0 0 0 0 0 0 0 0 0 0 0 0
-0 0 -0 0 0 0 0 0 0 0 0 0 0 0 0 0 0 -0 -0 -0 -0 0 0 0 0 0 0 0 0 0 0 0 0 0 0 0 0 0 0 0 0 0 0
0 -0 0 0 0 0 0 0 0 0 0 0 0 0 0 0 0 0 0 -0 0 0 0 0 0 0 0 0 0 0 0 0 0 0 0 0 0 0 0 0 0 0 0
0 0 0 0 0 0 0 0 0 0 0 0 0 0 0 0 0 0 0 0 0 0 0 0 0 0 0 0 0 0 0 0 0 0 0 0 0 0 0 0 0 0 0
-0 0 0 0 0 0 0 0 0 0 0 0 0 0 0 0 0 0 0 0 0 0 0 0 0 0 0 0 0 0 0 0 0 0 0 0 0 0 0 0 0 0 0
0 0 0 0 0 0 0 0 0 0 0 0 0 0 0 0 0 0 0 0 0 0 0 0 0 0 0 0 0 0 0 0 0 0 0 0 0 0 0 0 0 0 0
0 0 0 0 0 0 0 0 0 0 0 0 0 0 0 0 0 0 0 0 0 0 0 0 0 0 0 0 0 0 0 0 0 0 0 0 0 0 0 0 0 0 0
0 0 0 0 0 0 0 0 0 0 0 0 0 0 0 0 0 0 0 0 0 0 0 0 0 0 0 0 0 0 0 0 0 0 0 0 0 0 0 0 0 0 0
0 0 0 0 0 0 0 0 0 0 0 0 0 0 0 0 0 0 0 0 0 0 0 0 0 0 0 0 0 0 0 0 0 0 0 0 0 0 0 0 0 0 0
0 0 0 0 0 0 0 0 0 0 0 0 0 0 0 0 0 0 0 0 0 0 0 0 0 0 0 0 0 0 0 0 0 0 0 0 0 0 0 0 0 0 0
0 0 0 0 0 0 0 0 0 0 0 0 0 0 0 0 0 0 0 0 0 0 0 0 0 0 0 0 0 0 0 0 0 0 0 0 0 0 0 0 0 0 0
0 0 0 0 0 0 0 0 0 0 0 0 0 0 0 0 0 0 0 0 0 0 0 0 0 0 0 0 0 0 0 0 0 0 0 0 0 0 0 0 0 0 0
0 0 0 0 0 0 0 0 0 0 0 0 0 0 0 0 0 0 0 0 0 0 0 0 0 0 0 0 0 0 0 0 0 0 0 0 0 0 0 0 0 0 0
0 0 0 0 0 0 0 0 0 0 0 0 0 0 0 0 0 0 0 0 0 0 0 0 0 0 0 0 0 0 0 0 0 0 0 0 0 0 0 0 0 0 0
-0 0 0 -0 -0 0 0 0 0 0 0 0 0 0 0 0 0 0 0 0 0 0 0 0 0 0 0 0 0 0 0 0 0 0 0 0 0 0 0 0 0 0 0
Wind_Speed_500mb
30 29 30 26 24 27 27 23 23 22 20 16 13 9 7 9 15 20 33 33 33 28 32 30 30 32 34 31 30 30 31 37 40 41 42 41 41 40 41 38 41 37 39
33 29 30 27 25 25 24 21 19 15 14 10 9 6 8 14 19 23 36 30 31 27 30 31 32 32 32 30 31 34 36 36 35 38 40 42 35 34 35 31 34 32 35
33 30 28 25 24 23 20 15 12 11 10 7 7 9 11 18 25 31 33 27 30 29 26 30 32 32 34 33 35 36 34 33 36 34 35 35 36 34 32 29 27 29 29
32 30 26 24 23 21 19 18 13 6 5 5 9 14 16 21 28 32 29 24 30 26 28 30 31 32 34 36 35 33 32 34 30 34 30 31 32 32 30 30 29 28 28
35 26 23 22 20 21 20 18 9 5 3 6 12 16 18 26 31 30 25 26 29 24 26 30 31 33 33 33 32 31 31 30 26 27 30 29 30 28 28 26 26 25 26
36 26 21 20 20 20 21 18 9 4 3 8 14 19 20 22 26 28 26 20 28 23 28 29 29 30 30 30 27 26 29 26 26 25 29 31 22 23 23 23 23 22 21
33 25 21 22 22 22 20 14 10 7 10 11 17 22 23 22 22 26 27 21 25 24 26 26 27 27 27 24 23 24 25 24 23 23 24 21 20 19 19 18 19 18 19
25 22 21 22 23 25 20 18 14 13 15 11 16 20 21 19 19 19 21 19 23 24 23 25 25 24 22 19 18 19 21 20 22 20 20 15 17 17 17 16 17 17 18
27 22 19 23 24 24 24 22 17 18 23 16 14 19 23 21 18 17 18 17 18 20 20 21 21 19 16 14 13 15 16 16 16 17 15 11 16 12 12 11 10 14 14
32 26 23 23 26 28 29 28 24 25 28 25 21 21 21 21 18 14 12 13 14 17 18 18 16 14 11 9 8 9 10 11 13 14 13 11 10 8 8 11 13 13 10
40 34 28 26 26 27 29 30 29 32 35 28 26 14 15 19 19 17 14 11 13 15 16 15 13 10 8 5 4 3 4 6 8 9 10 12 12 11 9 9 10 10 13
45 41 33 29 27 26 29 29 29 30 29 28 26 24 21 21 19 14 12 11 11 13 13 12 9 6 4 3 3 2 3 4 5 7 9 12 12 14 9 10 12 13 14
46 42 36 32 29 27 28 31 31 29 28 28 26 23 24 21 18 17 15 13 13 14 13 11 9 6 6 7 7 8 9 9 9 11 11 12 13 14 13 13 13 16 21
49 42 36 35 32 30 30 30 31 31 30 29 28 25 25 22 21 20 19 17 16 15 14 13 10 10 11 11 12 13 15 16 16 16 17 16 16 17 16 17 17 23 23
51 46 42 39 37 36 35 34 33 31 30 28 28 28 28 26 23 23 23 22 21 19 17 14 14 14 15 15 16 17 19 21 22 23 22 22 20 21 20 21 23 24 28
54 50 46 44 41 40 38 37 35 33 30 31 32 31 30 28 26 24 24 25 24 21 20 19 19 19 19 19 20 21 22 25 27 28 28 28 26 25 26 26 25 27 30
60 54 50 47 46 45 42 39 38 36 34 34 33 34 33 31 28 27 28 26 24 24 24 24 23 23 24 24 24 27 27 28 30 31 33 33 33 32 32 31 30 29 34
59 59 54 50 49 46 47 45 42 40 39 39 39 39 36 34 33 32 28 25 26 27 27 27 27 27 27 28 29 31 33 35 34 35 37 38 39 38 37 35 34 36 36
59 58 57 54 53 49 49 48 46 44 45 44 44 43 41 40 37 33 31 29 30 31 31 31 31 31 31 32 33 35 38 40 40 41 42 42 43 43 41 41 39 42 42
59 62 60 60 58 54 50 51 50 51 52 51 47 47 43 43 42 40 37 35 35 37 37 36 35 36 36 37 39 42 43 46 46 46 47 47 48 49 47 45 46 47 49
61 65 67 67 64 62 62 61 59 59 55 51 50 48 48 48 47 46 44 42 43 45 43 42 42 43 44 43 45 46 43 48 51 52 47 47 43 43 48 49 51 50 55
65 67 68 70 69 70 70 67 62 58 56 55 53 52 50 50 49 50 49 48 49 49 50 49 50 50 50 49 44 32 30 34 44 45 42 41 45 48 46 46 51 58 60
71 73 74 72 72 74 72 70 68 66 67 66 66 62 58 54 53 52 53 54 54 54 54 55 54 54 55 51 54 40 24 23 32 34 41 48 53 55 53 52 52 56 58
74 73 77 75 74 75 76 78 78 76 75 70 67 63 59 58 58 58 56 57 58 59 59 58 59 59 60 64 59 65 63 60 42 46 42 53 66 73 71 66 65 68 64
75 81 77 77 77 75 79 81 82 81 76 73 70 66 62 58 55 57 57 57 59 59 60 61 63 64 65 68 66 62 72 70 69 68 68 58 52 67 79 77 75 76 76
83 82 83 83 82 80 79 78 82 80 78 80 75 72 63 59 58 54 53 51 50 50 52 53 53 57 61 63 64 65 69 61 55 58 69 74 74 74 74 72 78 78 75
Wind_Direction_500mb
153 143 135 132 134 138 136 136 132 129 122 118 110 91 67 82 95 99 95 94 97 89 89 91 93 94 95 96 93 91 88 81 88 88 85 83 83 78 75 72 66 67 78
156 150 144 142 146 144 144 140 138 135 125 123 105 74 86 110 110 112 99 90 98 98 90 91 95 97 99 95 91 87 84 84 85 84 70 73 84 84 75 75 77 71 72
161 158 151 151 152 153 152 152 147 125 122 98 74 81 107 115 115 108 104 107 95 102 91 94 99 95 97 95 88 87 89 85 79 75 79 76 71 70 72 81 79 77 72
163 159 161 159 162 164 161 157 145 123 92 100 94 104 114 120 115 112 112 109 102 104 99 97 99 97 94 92 93 91 83 77 76 79 78 75 71 68 68 65 68 69 73
165 168 168 169 176 173 166 160 163 136 86 90 107 117 120 121 117 118 119 103 108 111 101 96 95 94 96 96 90 87 85 82 77 79 80 77 72 67 65 64 64 63 61
168 170 177 175 176 174 167 170 186 180 146 126 130 130 123 126 129 127 120 119 112 110 95 96 101 101 96 92 94 92 84 76 73 72 75 69 73 65 57 56 57 54 54
171 176 177 176 176 177 180 189 198 170 155 129 135 138 135 134 130 129 122 118 114 111 105 106 103 102 102 102 98 91 84 76 75 73 75 73 65 59 59 53 51 47 41
182 185 181 180 185 188 194 191 189 151 154 130 131 140 139 131 127 124 126 119 119 123 112 109 109 107 103 102 98 90 83 75 68 69 78 73 66 52 41 33 30 32 30
188 191 196 186 189 187 184 192 181 159 161 159 140 146 144 136 128 126 128 130 127 121 119 113 109 111 113 107 97 88 81 71 73 69 73 62 53 31 30 44 20 357 9
194 199 201 190 187 185 192 196 182 183 173 168 167 162 161 149 137 127 124 127 124 124 125 122 120 118 119 117 100 90 79 66 63 58 55 44 39 6 348 354 4 2 357
199 199 200 194 192 193 191 202 204 189 190 183 196 196 167 160 154 153 150 140 139 142 138 131 128 126 130 133 115 91 67 55 47 40 30 18 17 4 336 335 352 353 336
199 200 199 197 196 199 201 196 201 198 186 187 197 206 190 173 171 164 155 157 157 154 152 150 151 155 170 208 229 272 315 331 352 354 353 351 353 350 334 327 342 334 329
199 201 203 199 198 199 202 196 199 202 197 194 198 193 189 188 183 182 179 179 181 178 177 178 187 204 230 245 260 273 279 291 304 310 315 327 330 330 309 318 332 316 306
205 203 205 205 201 201 199 205 204 206 207 208 204 200 195 198 198 196 193 196 202 202 201 207 218 236 253 263 271 272 279 284 289 292 296 304 310 314 318 308 307 306 291
209 205 209 209 206 205 203 204 207 209 210 210 209 204 203 201 203 203 204 207 211 213 218 228 244 257 265 269 271 276 279 282 285 287 291 294 299 302 305 306 305 306 291
213 213 212 211 211 212 209 208 210 210 211 211 210 210 210 210 210 211 213 216 220 223 228 234 246 258 267 273 278 279 282 283 283 284 288 290 292 294 296 297 300 297 289
217 216 219 218 216 216 214 212 214 216 214 215 215 214 213 213 216 217 220 223 226 230 235 241 252 261 268 274 278 282 283 283 283 285 286 288 291 291 290 289 291 287 289
218 219 221 223 225 225 221 218 218 220 220 221 219 219 218 218 219 223 227 227 230 234 239 246 253 261 267 272 276 280 283 284 285 286 286 289 291 289 289 288 292 291 287
221 220 223 225 227 228 228 226 225 226 227 227 226 224 222 225 227 229 231 234 238 241 244 249 256 262 268 274 278 279 282 284 288 289 289 290 289 286 287 293 286 286 286
223 224 225 227 228 229 231 230 230 230 230 232 230 230 230 230 232 235 237 238 243 248 251 254 260 267 270 274 280 282 283 285 286 287 290 292 294 288 280 277 280 284 286
226 226 226 227 228 229 230 230 230 232 233 236 235 234 234 234 236 239 242 244 246 251 257 260 263 265 272 278 280 286 287 285 282 284 286 286 293 302 288 280 276 276 283
232 230 229 230 229 230 232 234 236 241 242 243 243 242 241 243 243 244 247 250 251 255 258 261 264 269 273 273 273 278 289 289 280 285 282 277 282 287 294 291 284 276 278
237 233 230 230 230 232 233 236 237 239 241 241 241 242 242 243 246 248 250 253 256 259 261 264 265 268 271 272 275 260 272 269 296 283 285 283 285 284 289 287 282 286 282
243 238 235 232 232 233 233 234 236 239 242 245 246 249 248 247 249 251 255 257 258 262 264 266 269 269 269 269 271 274 271 270 277 285 279 285 286 286 291 289 285 285 283
242 241 240 237 234 233 234 236 237 240 244 246 249 249 248 250 250 252 254 256 259 263 266 266 267 269 268 270 270 271 279 281 279 271 280 284 283 287 292 295 293 290 287
242 236 236 238 238 237 237 238 238 241 242 243 246 250 251 249 248 248 253 256 260 261 264 267 268 268 269 271 273 274 274 268 275 279 280 284 286 290 293 294 298 298 293
Wind_Speed_850mb
30 29 30 26 24 27 27 23 23 22 20 16 13 9 7 9 15 20 33 33 33 28 32 30 30 32 34 31 30 30 31 37 40 41 42 41 41 40 41 38 41 37 39
33 29 30 27 25 25 24 21 19 15 14 10 9 6 8 14 19 23 36 30 31 27 30 31 32 32 32 30 31 34 36 36 35 38 40 42 35 34 35 31 34 32 35
33 30 28 25 24 23 20 15 12 11 10 7 7 9 11 18 25 31 33 27 30 29 26 30 32 32 34 33 35 36 34 33 36 34 35 35 36 34 32 29 27 29 29
32 30 26 24 23 21 19 18 13 6 5 5 9 14 16 21 28 32 29 24 30 26 28 30 31 32 34 36 35 33 32 34 30 34 30 31 32 32 30 30 29 28 28
35 26 23 22 20 21 20 18 9 5 3 6 12 16 18 26 31 30 25 26 29 24 26 30 31 33 33 33 32 31 31 30 26 27 30 29 30 28 28 26 26 25 26
36 26 21 20 20 20 21 18 9 4 3 8 14 19 20 22 26 28 26 20 28 23 28 29 29 30 30 30 27 26 29 26 26 25 29 31 22 23 23 23 23 22 21
33 25 21 22 22 22 20 14 10 7 10 11 17 22 23 22 22 26 27 21 25 24 26 26 27 27 27 24 23 24 25 24 23 23 24 21 20 19 19 18 19 18 19
25 22 21 22 23 25 20 18 14 13 15 11 16 20 21 19 19 19 21 19 23 24 23 25 25 24 22 19 18 19 21 20 22 20 20 15 17 17 17 16 17 17 18
27 22 19 23 24 24 24 22 17 18 23 16 14 19 23 21 18 17 18 17 18 20 20 21 21 19 16 14 13 15 16 16 16 17 15 11 16 12 12 11 10 14 14
32 26 23 23 26 28 29 28 24 25 28 25 21 21 21 21 18 14 12 13 14 17 18 18 16 14 11 9 8 9 10 11 13 14 13 11 10 8 8 11 13 13 10
40 34 28 26 26 27 29 30 29 32 35 28 26 14 15 19 19 17 14 11 13 15 16 15 13 10 8 5 4 3 4 6 8 9 10 12 12 11 9 9 10 10 13
45 41 33 29 27 26 29 29 29 30 29 28 26 24 21 21 19 14 12 11 11 13 13 12 9 6 4 3 3 2 3 4 5 7 9 12 12 14 9 10 12 13 14
46 42 36 32 29 27 28 31 31 29 28 28 26 23 24 21 18 17 15 13 13 14 13 11 9 6 6 7 7 8 9 9 9 11 11 12 13 14 13 13 13 16 21
49 42 36 35 32 30 30 30 31 31 30 29 28 25 25 22 21 20 19 17 16 15 14 13 10 10 11 11 12 13 15 16 16 16 17 16 16 17 16 17 17 23 23
51 46 42 39 37 36 35 34 33 31 30 28 28 28 28 26 23 23 23 22 21 19 17 14 14 14 15 15 16 17 19 21 22 23 22 22 20 21 20 21 23 24 28
54 50 46 44 41 40 38 37 35 33 30 31 32 31 30 28 26 24 24 25 24 21 20 19 19 19 19 19 20 21 22 25 27 28 28 28 26 25 26 26 25 27 30
60 54 50 47 46 45 42 39 38 36 34 34 33 34 33 31 28 27 28 26 24 24 24 24 23 23 24 24 24 27 27 28 30 31 33 33 33 32 32 31 30 29 34
59 59 54 50 49 46 47 45 42 40 39 39 39 39 36 34 33 32 28 25 26 27 27 27 27 27 27 28 29 31 33 35 34 35 37 38 39 38 37 35 34 36 36
59 58 57 54 53 49 49 48 46 44 45 44 44 43 41 40 37 33 31 29 30 31 31 31 31 31 31 32 33 35 38 40 40 41 42 42 43 43 41 41 39 42 42
59 62 60 60 58 54 50 51 50 51 52 51 47 47 43 43 42 40 37 35 35 37 37 36 35 36 36 37 39 42 43 46 46 46 47 47 48 49 47 45 46 47 49
61 65 67 67 64 62 62 61 59 59 55 51 50 48 48 48 47 46 44 42 43 45 43 42 42 43 44 43 45 46 43 48 51 52 47 47 43 43 48 49 51 50 55
65 67 68 70 69 70 70 67 62 58 56 55 53 52 50 50 49 50 49 48 49 49 50 49 50 50 50 49 44 32 30 34 44 45 42 41 45 48 46 46 51 58 60
71 73 74 72 72 74 72 70 68 66 67 66 66 62 58 54 53 52 53 54 54 54 54 55 54 54 55 51 54 40 24 23 32 34 41 48 53 55 53 52 52 56 58
74 73 77 75 74 75 76 78 78 76 75 70 67 63 59 58 58 58 56 57 58 59 59 58 59 59 60 64 59 65 63 60 42 46 42 53 66 73 71 66 65 68 64
75 81 77 77 77 75 79 81 82 81 76 73 70 66 62 58 55 57 57 57 59 59 60 61 63 64 65 68 66 62 72 70 69 68 68 58 52 67 79 77 75 76 76
83 82 83 83 82 80 79 78 82 80 78 80 75 72 63 59 58 54 53 51 50 50 52 53 53 57 61 63 64 65 69 61 55 58 69 74 74 74 74 72 78 78 75
Wind_Direction_850mb
153 143 135 132 134 138 136 136 132 129 122 118 110 91 67 82 95 99 95 94 97 89 89 91 93 94 95 96 93 91 88 81 88 88 85 83 83 78 75 72 66 67 78
156 150 144 142 146 144 144 140 138 135 125 123 105 74 86 110 110 112 99 90 98 98 90 91 95 97 99 95 91 87 84 84 85 84 70 73 84 84 75 75 77 71 72
161 158 151 151 152 153 152 152 147 125 122 98 74 81 107 115 115 108 104 107 95 102 91 94 99 95 97 95 88 87 89 85 79 75 79 76 71 70 72 81 79 77 72
163 159 161 159 162 164 161 157 145 123 92 100 94 104 114 120 115 112 112 109 102 104 99 97 99 97 94 92 93 91 83 77 76 79 78 75 71 68 68 65 68 69 73
165 168 168 169 176 173 166 160 163 136 86 90 107 117 120 121 117 118 119 103 108 111 101 96 95 94 96 96 90 87 85 82 77 79 80 77 72 67 65 64 64 63 61
168 170 177 175 176 174 167 170 186 180 146 126 130 130 123 126 129 127 120 119 112 110 95 96 101 101 96 92 94 92 84 76 73 72 75 69 73 65 57 56 57 54 54
171 176 177 176 176 177 180 189 198 170 155 129 135 138 135 134 130 129 122 118 114 111 105 106 103 102 102 102 98 91 84 76 75 73 75 73 65 59 59 53 51 47 41
182 185 181 180 185 188 194 191 189 151 154 130 131 140 139 131 127 124 126 119 119 123 112 109 109 107 103 102 98 90 83 75 68 69 78 73 66 52 41 33 30 32 30
188 191 196 186 189 187 184 192 181 159 161 159 140 146 144 136 128 126 128 130 127 121 119 113 109 111 113 107 97 88 81 71 73 69 73 62 53 31 30 44 20 357 9
194 199 201 190 187 185 192 196 182 183 173 168 167 162 161 149 137 127 124 127 124 124 125 122 120 118 119 117 100 90 79 66 63 58 55 44 39 6 348 354 4 2 357
199 199 200 194 192 193 191 202 204 189 190 183 196 196 167 160 154 153 150 140 139 142 138 131 128 126 130 133 115 91 67 55 47 40 30 18 17 4 336 335 352 353 336
199 200 199 197 196 199 201 196 201 198 186 187 197 206 190 173 171 164 155 157 157 154 152 150 151 155 170 208 229 272 315 331 352 354 353 351 353 350 334 327 342 334 329
199 201 203 199 198 199 202 196 199 202 197 194 198 193 189 188 183 182 179 179 181 178 177 178 187 204 230 245 260 273 279 291 304 310 315 327 330 330 309 318 332 316 306
205 203 205 205 201 201 199 205 204 206 207 208 204 200 195 198 198 196 193 196 202 202 201 207 218 236 253 263 271 272 279 284 289 292 296 304 310 314 318 308 307 306 291
209 205 209 209 206 205 203 204 207 209 210 210 209 204 203 201 203 203 204 207 211 213 218 228 244 257 265 269 271 276 279 282 285 287 291 294 299 302 305 306 305 306 291
213 213 212 211 211 212 209 208 210 210 211 211 210 210 210 210 210 211 213 216 220 223 228 234 246 258 267 273 278 279 282 283 283 284 288 290 292 294 296 297 300 297 289
217 216 219 218 216 216 214 212 214 216 214 215 215 214 213 213 216 217 220 223 226 230 235 241 252 261 268 274 278 282 283 283 283 285 286 288 291 291 290 289 291 287 289
218 219 221 223 225 225 221 218 218 220 220 221 219 219 218 218 219 223 227 227 230 234 239 246 253 261 267 272 276 280 283 284 285 286 286 289 291 289 289 288 292 291 287
221 220 223 225 227 228 228 226 225 226 227 227 226 224 222 225 227 229 231 234 238 241 244 249 256 262 268 274 278 279 282 284 288 289 289 290 289 286 287 293 286 286 286
223 224 225 227 228 229 231 230 230 230 230 232 230 230 230 230 232 235 237 238 243 248 251 254 260 267 270 274 280 282 283 285 286 287 290 292 294 288 280 277 280 284 286
226 226 226 227 228 229 230 230 230 232 233 236 235 234 234 234 236 239 242 244 246 251 257 260 263 265 272 278 280 286 287 285 282 284 286 286 293 302 288 280 276 276 283
232 230 229 230 229 230 232 234 236 241 242 243 243 242 241 243 243 244 247 250 251 255 258 261 264 269 273 273 273 278 289 289 280 285 282 277 282 287 294 291 284 276 278
237 233 230 230 230 232 233 236 237 239 241 241 241 242 242 243 246 248 250 253 256 259 261 264 265 268 271 272 275 260 272 269 296 283 285 283 285 284 289 287 282 286 282
243 238 235 232 232 233 233 234 236 239 242 245 246 249 248 247 249 251 255 257 258 262 264 266 269 269 269 269 271 274 271 270 277 285 279 285 286 286 291 289 285 285 283
242 241 240 237 234 233 234 236 237 240 244 246 249 249 248 250 250 252 254 256 259 263 266 266 267 269 268 270 270 271 279 281 279 271 280 284 283 287 292 295 293 290 287
242 236 236 238 238 237 237 238 238 241 242 243 246 250 251 249 248 248 253 256 260 261 264 267 268 268 269 271 273 274 274 268 275 279 280 284 286 290 293 294 298 298 293